RAX-2 - Orbit

View from above orbital plane
View from above orbital plane
View from above satellite
View from above satellite

Ground track
Ground track

The orbit data is extracted from the following two-line orbital elements,

1 37853U 11061D   13140.52334228  .00007309  00000-0  55164-3 0  5060
2 37853 101.7167 341.3412 0236070 106.8113 335.5833 14.83399922 84346
Epoch (UTC): 20 May 2013 12:33:36
Eccentricity: 0.0236070
inclination: 101.7167°
perigee height: 453 km
apogee height: 784 km
right ascension of ascending node: 341.3412°
argument of perigee: 106.8113°
revolutions per day: 14.83399922
mean anomaly at epoch: 335.5833°
orbit number at epoch: 8434

The dashed part of the orbit path shows where the satellite is in the earth's shadow,  

Developed and maintained by Chris Peat, Heavens-Above GmbH. Please read the updated FAQ before sending e-mail. Imprint. DLR